Location: Владивосток
(43.1151°N, 131.8856°E)
Time: 17:47:11
(UTC+10:00)

FENGYUN 1C DEB - Pass Details

Date: 28 May 2025
Orbit: 716 x 738 km, 98.8° (Epoch: 20 June)

Event Time Altitude Azimuth Distance (km) Brightness Sun altitude
Exits shadow 02:51:11 39° 251° (WSW) 1,082 ? -21.4°
Maximum altitude 02:51:31 40° 261° (W) 1,073 ? -21.3°
Drops below altitude 10° 02:56:07 10° 331° (NNW) 2,232 ? -21.0°
Sets 02:58:32 0° 339° (NNW) 3,154 ? -20.8°
